Location: Lawrence Hall of Science
(37.8785°N, 122.2415°W)
Time: 08:06:23
(UTC-07:00)

ARGOS - Visible Passes

Search period start: 28 August 2014 00:00
Search period end: 07 September 2014 00:00
Orbit: 821 x 835 km, 98.8° (Epoch: 27 August)

Date Brightness Start Highest point End Pass type
(mag) Time Alt. Az. Time Alt. Az. Time Alt. Az.
28 Aug 4.4 21:43:15 26° ENE 21:43:15 26° ENE 21:47:23 10° NNE visible
28 Aug 4.8 23:24:47 30° WNW 23:24:47 30° WNW 23:28:03 10° NNW visible
29 Aug 4.8 21:24:43 18° ENE 21:24:49 18° ENE 21:28:19 10° NNE visible
29 Aug 4.3 23:06:15 40° NW 23:06:15 40° NW 23:09:53 10° NNW visible
30 Aug 5.1 21:06:11 12° ENE 21:06:40 12° ENE 21:08:40 10° NE visible
30 Aug 4.0 22:47:43 48° NNW 22:47:43 48° NNW 22:51:33 10° NNW visible
31 Aug 3.9 22:29:11 46° NNE 22:29:11 46° NNE 22:33:05 10° N visible
01 Sep 5.9 00:10:43 11° WNW 00:10:43 11° WNW 00:11:16 10° WNW visible
01 Sep 4.0 22:10:39 37° NE 22:10:39 37° NE 22:14:30 10° N visible
01 Sep 5.6 23:52:11 17° WNW 23:52:11 17° WNW 23:53:54 10° NW visible
02 Sep 4.4 21:52:07 28° NE 21:52:07 28° NE 21:55:46 10° N visible
02 Sep 5.2 23:33:39 23° NW 23:33:39 23° NW 23:36:04 10° NW visible
03 Sep 4.7 21:33:35 20° NE 21:33:35 20° NE 21:36:50 10° NNE visible
03 Sep 4.8 23:15:07 30° NW 23:15:07 30° NW 23:17:59 10° NNW visible
04 Sep 5.0 21:15:03 14° ENE 21:15:03 14° ENE 21:17:32 10° NNE visible
04 Sep 4.5 22:56:35 36° NNW 22:56:35 36° NNW 22:59:43 10° NNW visible
05 Sep 4.3 22:38:03 38° N 22:38:03 38° N 22:41:19 10° N visible
06 Sep 4.3 22:19:32 34° NNE 22:19:32 34° NNE 22:22:47 10° N visible
